Alta, CA

5:07 PM PST on February 19, 2017 (GMT -0800)
Blue Canyon-Nyack

Weather History for KBLU - September, 2014

Change the Weather History Date:

Monday, September 8, 2014

  Actual Average Record
Temperature  
Mean Temperature 66 °F -  
Max Temperature 73 °F 74 °F 87 °F (1957)
Min Temperature 57 °F 55 °F 39 °F (1985)
Cooling Degree Days 1    
Growing Degree Days 16 (Base 50)    
Moisture  
Dew Point 23 °F    
Average Humidity 20    
Maximum Humidity 31    
Minimum Humidity 13    
Precipitation  
Precipitation 0.00 in - - ()
Sea Level Pressure  
Sea Level Pressure 29.79 in    
Wind  
Wind Speed 6 mph (SSE)    
Max Wind Speed 13 mph    
Max Gust Speed 23 mph    
Visibility 10 miles    
Events      
Averages and records for this station are not official NWS values.
T = Trace of Precipitation, MM = Missing Value Source: NWS Daily Summary

Daily Weather History Graph

Daily Weather History Graph

Search for Another Location

Airport or City:

Trip Planner

Search our weather history database for the weather conditions in past years. The results will help you decide how hot, cold, wet, or windy it might be!

Date:

Astronomy

Sep. 08, 2014 Rise Set
Actual Time 6:37 AM PDT 7:22 PM PDT
Civil Twilight 6:10 AM PDT 7:49 PM PDT
Nautical Twilight 5:38 AM PDT 8:21 PM PDT
Astronomical Twilight 5:05 AM PDT 8:54 PM PDT
Moon 7:06 PM PDT (9/8) 6:08 AM PDT (9/8)
Length of Visible Light 13h 38m
Length of Day
12h 44m
Full, 100% of the Moon is Illuminated
Sep 8
Full
Sep 8
Full
Sep 15
Last Quarter
Sep 23
New
Oct 1
First Quarter

Hourly Weather History & Observations

Time (PDT) Temp. Dew Point Humidity Pressure Visibility Wind Dir Wind Speed Gust Speed Precip Events Conditions
12:52 AM 66.0 °F 18.0 °F 16% 29.76 in 10.0 mi ESE 4.6 mph - N/A   Clear
1:52 AM 66.0 °F 14.0 °F 13% 29.76 in 10.0 mi SE 5.8 mph - N/A   Clear
2:52 AM 66.0 °F 12.9 °F 13% 29.73 in 10.0 mi SE 4.6 mph - N/A   Clear
3:52 AM 66.0 °F 12.9 °F 13% 29.74 in 10.0 mi SE 4.6 mph - N/A   Mostly Cloudy
4:52 AM 66.0 °F 12.9 °F 13% 29.74 in 10.0 mi Variable 3.5 mph - N/A   Scattered Clouds
5:52 AM 66.0 °F 15.1 °F 14% 29.73 in 10.0 mi ESE 3.5 mph - N/A   Scattered Clouds
6:52 AM 64.9 °F 17.1 °F 16% 29.75 in 10.0 mi SE 5.8 mph - N/A   Scattered Clouds
7:52 AM 66.0 °F 21.0 °F 18% 29.78 in 10.0 mi SE 3.5 mph - N/A   Scattered Clouds
8:52 AM 66.9 °F 27.0 °F 22% 29.79 in 10.0 mi SSE 4.6 mph - N/A   Mostly Cloudy
9:52 AM 68.0 °F 27.0 °F 21% 29.80 in 10.0 mi South 9.2 mph - N/A   Mostly Cloudy
10:52 AM 70.0 °F 30.0 °F 23% 29.81 in 10.0 mi South 10.4 mph - N/A   Mostly Cloudy
11:52 AM 72.0 °F 26.1 °F 18% 29.79 in 10.0 mi Variable 6.9 mph 20.7 mph N/A   Mostly Cloudy
12:52 PM 72.0 °F 28.9 °F 20% 29.78 in 10.0 mi South 12.7 mph 21.9 mph N/A   Scattered Clouds
1:52 PM 73.0 °F 30.0 °F 20% 29.77 in 10.0 mi South 10.4 mph 21.9 mph N/A   Partly Cloudy
2:52 PM 72.0 °F 30.0 °F 21% 29.77 in 10.0 mi SW 8.1 mph 19.6 mph N/A   Clear
3:52 PM 70.0 °F 25.0 °F 18% 29.78 in 10.0 mi South 11.5 mph 23.0 mph N/A   Clear
4:52 PM 69.1 °F 26.1 °F 20% 29.78 in 10.0 mi South 9.2 mph 18.4 mph N/A   Clear
5:52 PM 68.0 °F 26.1 °F 21% 29.79 in 10.0 mi SSW 8.1 mph - N/A   Clear
6:52 PM 64.9 °F 24.1 °F 21% 29.82 in 10.0 mi SSW 6.9 mph - N/A   Clear
7:52 PM 61.0 °F 24.1 °F 24% 29.83 in 10.0 mi SSE 3.5 mph - N/A   Clear
8:52 PM 60.1 °F 25.0 °F 26% 29.85 in 10.0 mi SE 3.5 mph - N/A   Clear
9:52 PM 59.0 °F 26.1 °F 28% 29.86 in 10.0 mi Calm Calm - N/A   Clear
10:52 PM 59.0 °F 28.0 °F 31% 29.87 in 10.0 mi ESE 3.5 mph - N/A   Clear
11:52 PM 57.9 °F 23.0 °F 26% 29.88 in 10.0 mi East 3.5 mph - N/A   Clear